Location: Taukkyan
(23.1052°N, 94.0030°E)
Time: 11:51:27
(UTC+00:00)

Cosmos 2344 - Pass Details

Date: 06 July 2020
Orbit: 1249 x 2994 km, 63.3° (Epoch: 14 August)

Event Time Altitude Azimuth Distance (km) Brightness Sun altitude
Exits shadow 15:35:19 51° 50° (NE) 1,551 3.9 -33.9°
Drops below altitude 10° 15:40:40 10° 32° (NNE) 3,232 5.9 -34.7°
Sets 15:43:25 0° 30° (NNE) 4,246 6.6 -35.1°
